| time (UTC) | temp C | wind direction | speed KPH | gust KPH | rain 1hr cm | rain 24hr cm | rain mn cm | humidity % | barometer mb |
| 20260906134642 | 9 | 180 | 0.0 | 3.2 | 0.15 | 0.71 | 0.43 | 95 | 1017.0 |
| 20260906133035 | 9 | 162 | 4.8 | 9.7 | 0.15 | 0.71 | 0.38 | 95 | 1017.0 |
| 20260906130036 | 9 | 180 | 0.0 | 3.2 | 0.13 | 0.64 | 0.30 | 95 | 1017.0 |
| 20260906124537 | 9 | 180 | 0.0 | 0.0 | 0.10 | 0.58 | 0.28 | 95 | 1017.1 |
| 20260906123106 | 9 | 165 | 3.2 | 8.0 | 0.08 | 0.56 | 0.25 | 94 | 1017.1 |
| 20260906121529 | 9 | 149 | 4.8 | 8.0 | 0.05 | 0.53 | 0.23 | 94 | 1017.2 |
| 20260906114536 | 9 | 174 | 4.8 | 8.0 | 0.00 | 0.48 | 0.20 | 94 | 1017.3 |
| 20260906113037 | 9 | 164 | 3.2 | 6.4 | 0.00 | 0.48 | 0.20 | 94 | 1017.4 |
| 20260906111535 | 9 | 152 | 3.2 | 8.0 | 0.03 | 0.48 | 0.20 | 94 | 1017.4 |
| 20260906110107 | 9 | 140 | 4.8 | 8.0 | 0.03 | 0.48 | 0.20 | 94 | 1017.4 |
| 20260906104535 | 9 | 152 | 4.8 | 9.7 | 0.05 | 0.48 | 0.20 | 94 | 1017.6 |
| 20260906103034 | 10 | 190 | 6.4 | 11.3 | 0.08 | 0.48 | 0.18 | 94 | 1017.9 |
| 20260906100030 | 10 | 115 | 1.6 | 6.4 | 0.10 | 0.46 | 0.15 | 93 | 1018.0 |
| 20260906094605 | 10 | 165 | 3.2 | 17.7 | 0.10 | 0.43 | 0.13 | 93 | 1018.0 |
| 20260906091532 | 10 | 150 | 6.4 | 16.1 | 0.10 | 0.38 | 0.08 | 93 | 1018.1 |
| 20260906090033 | 10 | 157 | 3.2 | 11.3 | 0.08 | 0.36 | 0.05 | 93 | 1018.1 |
| 20260906084606 | 10 | 157 | 8.0 | 16.1 | 0.05 | 0.33 | 0.03 | 93 | 1018.1 |
| 20260906083104 | 10 | 158 | 6.4 | 17.7 | 0.03 | 0.30 | 0.00 | 93 | 1018.2 |
| 20260906080038 | 10 | 151 | 6.4 | 14.5 | 0.00 | 0.28 | 0.00 | 93 | 1017.9 |
| 20260906073032 | 10 | 152 | 4.8 | 11.3 | 0.00 | 0.28 | 0.00 | 93 | 1017.9 |
| 20260906071533 | 10 | 155 | 6.4 | 9.7 | 0.00 | 0.28 | 0.00 | 93 | 1018.2 |
| 20260906064531 | 9 | 153 | 6.4 | 14.5 | 0.00 | 0.28 | 0.28 | 93 | 1018.3 |
| 20260906063034 | 9 | 162 | 8.0 | 14.5 | 0.00 | 0.28 | 0.28 | 93 | 1018.3 |
| 20260906061534 | 9 | 153 | 8.0 | 12.9 | 0.00 | 0.28 | 0.28 | 93 | 1018.4 |
| 20260906060142 | 9 | 154 | 6.4 | 9.7 | 0.00 | 0.30 | 0.28 | 93 | 1018.5 |
| 20260906054532 | 9 | 176 | 8.0 | 11.3 | 0.00 | 0.33 | 0.28 | 93 | 1018.5 |
| 20260906053032 | 9 | 154 | 6.4 | 11.3 | 0.00 | 0.33 | 0.28 | 92 | 1018.6 |
| 20260906051535 | 9 | 155 | 6.4 | 9.7 | 0.00 | 0.33 | 0.28 | 92 | 1018.7 |
| 20260906050033 | 10 | 142 | 8.0 | 16.1 | 0.00 | 0.33 | 0.28 | 92 | 1018.7 |
| 20260906044538 | 10 | 138 | 6.4 | 12.9 | 0.00 | 0.33 | 0.28 | 92 | 1018.8 |
| 20260906043153 | 10 | 141 | 6.4 | 11.3 | 0.00 | 0.33 | 0.28 | 92 | 1018.9 |
| 20260906043144 | 10 | 144 | 6.4 | 12.9 | 0.00 | 0.33 | 0.28 | 92 | 1018.9 |
| 20260906040034 | 10 | 156 | 8.0 | 12.9 | 0.00 | 0.33 | 0.28 | 92 | 1018.8 |
| 20260906034533 | 10 | 176 | 6.4 | 11.3 | 0.00 | 0.33 | 0.28 | 91 | 1018.7 |
| 20260906033045 | 10 | 175 | 6.4 | 11.3 | 0.00 | 0.33 | 0.28 | 91 | 1018.6 |
| 20260906031535 | 10 | 160 | 6.4 | 9.7 | 0.00 | 0.33 | 0.28 | 90 | 1018.4 |
| 20260906024532 | 11 | 152 | 6.4 | 9.7 | 0.00 | 0.33 | 0.28 | 90 | 1018.3 |
| 20260906023035 | 11 | 150 | 4.8 | 8.0 | 0.00 | 0.33 | 0.28 | 89 | 1018.4 |
| 20260906020034 | 12 | 157 | 0.0 | 1.6 | 0.00 | 0.33 | 0.28 | 87 | 1018.4 |
| 20260906014534 | 12 | 157 | 0.0 | 1.6 | 0.00 | 0.33 | 0.28 | 86 | 1018.4 |
| 20260906013030 | 12 | 157 | 0.0 | 1.6 | 0.00 | 0.33 | 0.28 | 84 | 1018.4 |
| 20260906011643 | 13 | 188 | 0.0 | 4.8 | 0.00 | 0.33 | 0.28 | 84 | 1018.6 |
| 20260906010034 | 13 | 202 | 0.0 | 1.6 | 0.00 | 0.33 | 0.28 | 84 | 1018.8 |
| 20260906004529 | 13 | 202 | 0.0 | 1.6 | 0.00 | 0.33 | 0.28 | 84 | 1018.8 |
| 20260906003106 | 14 | 238 | 3.2 | 8.0 | 0.00 | 0.33 | 0.28 | 84 | 1018.8 |
| 20260906001531 | 14 | 217 | 4.8 | 11.3 | 0.18 | 0.33 | 0.28 | 85 | 1018.8 |
| 20260906000036 | 13 | 171 | 1.6 | 6.4 | 0.28 | 0.33 | 0.28 | 86 | 1018.8 |
| 20260905231535 | 15 | 270 | 0.0 | 4.8 | 0.10 | 0.15 | 0.00 | 79 | 1019.0 |
| 20260905224535 | 16 | 276 | 4.8 | 11.3 | 0.00 | 0.05 | 0.00 | 78 | 1018.7 |
| 20260905221606 | 15 | 200 | 3.2 | 8.0 | 0.00 | 0.05 | 0.00 | 79 | 1018.9 |
| 20260905220032 | 15 | 241 | 3.2 | 8.0 | 0.00 | 0.05 | 0.00 | 79 | 1018.7 |
| 20260905213033 | 15 | 304 | 3.2 | 11.3 | 0.00 | 0.05 | 0.00 | 80 | 1018.7 |
| 20260905211534 | 15 | 279 | 1.6 | 6.4 | 0.00 | 0.05 | 0.00 | 81 | 1018.9 |
| 20260905204534 | 15 | 315 | 1.6 | 8.0 | 0.00 | 0.05 | 0.00 | 81 | 1019.1 |
| 20260905203143 | 15 | 330 | 3.2 | 9.7 | 0.00 | 0.05 | 0.00 | 82 | 1019.1 |
| 20260905201533 | 13 | 349 | 1.6 | 6.4 | 0.00 | 0.05 | 0.00 | 83 | 1019.1 |
| 20260905194608 | 13 | 260 | 1.6 | 8.0 | 0.00 | 0.05 | 0.00 | 85 | 1019.3 |
| 20260905193030 | 13 | 316 | 3.2 | 8.0 | 0.00 | 0.05 | 0.00 | 85 | 1019.4 |
| 20260905191533 | 13 | 300 | 1.6 | 6.4 | 0.00 | 0.05 | 0.00 | 85 | 1019.4 |
| 20260905190035 | 12 | 278 | 0.0 | 6.4 | 0.00 | 0.05 | 0.00 | 85 | 1019.5 |
| 20260905184531 | 13 | 263 | 1.6 | 6.4 | 0.00 | 0.05 | 0.00 | 85 | 1019.6 |
| 20260905183031 | 13 | 275 | 3.2 | 8.0 | 0.00 | 0.05 | 0.00 | 85 | 1019.6 |
| 20260905181532 | 13 | 310 | 3.2 | 8.0 | 0.00 | 0.05 | 0.00 | 85 | 1019.7 |
| 20260905180037 | 13 | 320 | 4.8 | 11.3 | 0.00 | 0.05 | 0.00 | 86 | 1019.7 |
| 20260905173031 | 12 | 301 | 3.2 | 8.0 | 0.00 | 0.05 | 0.00 | 89 | 1019.7 |
| 20260905171535 | 12 | 277 | 0.0 | 6.4 | 0.00 | 0.05 | 0.00 | 89 | 1019.6 |
| 20260905170035 | 11 | 247 | 0.0 | 3.2 | 0.00 | 0.05 | 0.00 | 90 | 1019.6 |
| 20260905164536 | 11 | 206 | 0.0 | 0.0 | 0.00 | 0.05 | 0.00 | 91 | 1019.6 |
| 20260905163035 | 11 | 202 | 0.0 | 0.0 | 0.00 | 0.05 | 0.00 | 92 | 1019.5 |
| 20260905161528 | 11 | 201 | 0.0 | 0.0 | 0.00 | 0.05 | 0.00 | 92 | 1019.5 |
| 20260905160030 | 10 | 180 | 0.0 | 0.0 | 0.00 | 0.08 | 0.00 | 92 | 1019.4 |
| 20260905154651 | 10 | 180 | 0.0 | 0.0 | 0.00 | 0.08 | 0.00 | 93 | 1019.4 |
| 20260905153032 | 9 | 180 | 0.0 | 3.2 | 0.00 | 0.08 | 0.00 | 93 | 1019.3 |
| 20260905151536 | 9 | 178 | 4.8 | 9.7 | 0.00 | 0.08 | 0.00 | 93 | 1019.2 |
| 20260905150036 | 8 | 160 | 4.8 | 12.9 | 0.00 | 0.08 | 0.00 | 94 | 1019.2 |
| 20260905144534 | 8 | 147 | 6.4 | 12.9 | 0.00 | 0.08 | 0.00 | 94 | 1019.2 |
| 20260905143031 | 8 | 152 | 9.7 | 16.1 | 0.00 | 0.08 | 0.00 | 94 | 1019.1 |
| 20260905141532 | 7 | 146 | 9.7 | 17.7 | 0.00 | 0.08 | 0.00 | 94 | 1019.1 |
| 20260905140105 | 7 | 168 | 6.4 | 14.5 | 0.00 | 0.08 | 0.00 | 94 | 1018.9 |